Vorticity
5 9 8 5 2 2 4 5 7 9 8 10 10 10 10 10 10 10 9 7 6 8 7 7 7 7 8 3 6 6 7 5 5 7 16 13 11 12
10 4 2 4 5 7 8 8 8 6 7 6 8 9 10 11 10 9 9 8 7 7 6 5 7 7 7 9 8 3 5 5 3 2 6 10 17 11
13 13 11 10 7 4 3 3 4 4 5 7 6 5 5 4 5 7 7 9 7 7 5 6 6 4 8 10 4 1 5 6 3 3 2 1 5 9
13 12 10 10 12 12 11 8 7 6 2 4 5 3 4 6 6 5 4 5 6 7 7 8 8 11 9 6 9 7 2 12 11 6 1 5 6 1
5 4 2 3 7 12 10 8 10 11 11 12 11 9 8 7 6 5 8 6 4 4 6 6 5 5 7 8 7 3 3 5 4 10 10 7 2 3
4 4 4 6 6 5 2 3 7 7 7 7 8 14 15 13 12 10 11 13 16 13 10 5 1 4 7 4 -5 9 13 10 9 7 15 9 9 10
5 4 6 6 4 5 6 7 5 2 8 11 9 10 10 12 16 19 19 18 13 9 11 12 19 20 14 10 15 23 17 15 12 6 6 17 8 1
3 4 2 3 3 6 6 8 9 7 6 7 9 10 7 6 4 4 6 8 11 16 13 16 11 5 8 13 17 9 8 10 9 12 11 10 6 10
7 9 10 9 8 6 8 7 9 11 15 15 15 16 10 7 7 7 6 3 4 2 3 7 11 14 16 12 2 16 8 13 18 21 18 16 15 15
11 13 12 12 11 12 11 10 10 10 11 13 15 9 11 14 15 15 16 15 12 10 7 10 8 9 7 12 18 7 8 5 1 -12 -4 2 -0 3
13 12 13 12 10 11 11 10 10 8 8 7 8 10 11 12 11 11 14 15 14 10 13 9 10 12 14 13 9 8 13 8 6 13 12 9 4 6
10 15 13 11 10 10 7 10 10 10 9 10 10 10 10 10 8 9 8 8 11 15 13 14 10 12 5 5 6 9 9 9 9 5 2 -2 1 -1
14 16 14 11 10 10 14 12 11 9 9 8 7 9 10 10 11 12 11 9 7 6 7 8 12 12 12 16 19 15 10 7 3 6 12 16 18 19
13 13 12 12 13 12 10 10 10 10 10 8 9 10 10 9 9 8 10 11 12 12 11 9 6 7 7 9 12 13 15 18 19 18 16 13 10 12
11 11 11 12 13 15 15 14 9 9 10 10 9 8 8 9 8 8 9 8 7 8 10 10 10 8 6 6 8 7 5 6 7 7 8 9 9 11
13 13 14 15 15 15 14 15 15 17 18 18 17 14 12 11 8 8 8 9 8 10 10 10 10 11 12 10 7 7 5 6 5 7 6 8 9 9
18 19 19 23 21 20 19 19 19 20 20 20 20 20 19 19 19 17 15 14 12 13 12 11 12 11 13 16 18 16 12 10 9 8 10 11 12 13
20 25 24 23 23 23 22 21 19 19 20 20 19 18 17 17 18 18 18 17 19 21 20 19 17 16 14 10 10 14 16 19 17 15 16 14 13 12
21 21 19 19 19 18 18 17 17 17 17 18 20 19 21 22 21 19 19 20 24 23 22 21 20 17 17 19 18 10 9 9 11 12 13 12 11 12
20 21 21 21 20 18 18 18 20 20 19 18 18 21 22 22 22 24 25 28 28 29 28 27 26 25 21 17 16 12 11 9 10 8 7 9 9 12
17 19 19 20 19 20 22 22 21 20 18 17 17 19 19 21 24 26 28 26 24 23 25 26 28 27 26 25 23 21 20 15 15 13 13 13 14 16
16 17 19 22 22 21 21 20 19 19 17 18 20 19 20 20 20 21 21 20 18 18 23 23 20 21 25 25 21 22 24 22 21 22 21 19 18 16
16 17 19 21 22 19 17 17 17 17 17 18 17 16 16 18 18 22 20 16 15 25 30 26 13 7 10 14 14 13 15 16 16 18 18 16 17 15
Height
5668 5667 5666 5667 5667 5666 5666 5666 5666 5665 5663 5661 5660 5661 5660 5660 5661 5662 5662 5663 5663 5663 5663 5662 5662 5662 5663 5663 5664 5664 5664 5665 5665 5665 5665 5666 5668 5670
5662 5660 5659 5658 5657 5656 5656 5655 5655 5654 5655 5652 5650 5649 5648 5648 5648 5649 5650 5651 5651 5651 5651 5652 5651 5651 5652 5653 5653 5654 5655 5656 5657 5657 5657 5658 5659 5661
5653 5652 5650 5649 5648 5646 5645 5644 5643 5642 5642 5641 5640 5638 5637 5636 5636 5636 5637 5638 5639 5639 5639 5640 5640 5640 5640 5642 5643 5644 5645 5645 5646 5647 5648 5650 5651 5652
5643 5641 5639 5637 5636 5634 5633 5631 5630 5629 5628 5628 5626 5625 5625 5624 5623 5622 5622 5623 5624 5625 5625 5626 5627 5628 5628 5629 5629 5631 5632 5633 5634 5636 5637 5639 5641 5642
5632 5630 5627 5625 5622 5620 5618 5616 5614 5613 5611 5610 5609 5609 5608 5608 5609 5609 5607 5606 5607 5608 5609 5611 5612 5612 5614 5615 5616 5617 5618 5619 5621 5622 5624 5627 5629 5631
5619 5616 5613 5611 5608 5606 5603 5601 5598 5596 5594 5592 5591 5591 5591 5589 5589 5590 5591 5591 5591 5591 5592 5594 5595 5596 5597 5599 5600 5601 5603 5604 5605 5608 5610 5612 5615 5617
5604 5600 5597 5594 5591 5589 5586 5583 5582 5579 5576 5575 5573 5571 5571 5572 5571 5572 5573 5573 5573 5573 5575 5576 5578 5578 5580 5582 5582 5584 5586 5588 5590 5592 5594 5597 5599 5602
5586 5582 5578 5574 5570 5567 5565 5562 5560 5558 5557 5555 5555 5554 5551 5552 5553 5554 5554 5555 5557 5556 5557 5559 5561 5561 5563 5565 5567 5568 5569 5571 5573 5576 5578 5581 5584 5586
5565 5561 5557 5554 5550 5546 5544 5542 5539 5536 5536 5534 5536 5535 5534 5532 5534 5534 5536 5537 5537 5538 5541 5541 5541 5543 5545 5548 5551 5551 5552 5555 5557 5560 5563 5565 5568 5570
5544 5540 5536 5532 5528 5525 5523 5520 5518 5516 5513 5513 5515 5515 5514 5512 5512 5513 5514 5516 5518 5517 5519 5526 5521 5524 5527 5530 5533 5535 5537 5539 5541 5544 5547 5550 5552 5554
5522 5518 5514 5510 5505 5501 5500 5497 5496 5493 5490 5492 5493 5494 5493 5492 5491 5492 5494 5495 5498 5499 5499 5503 5504 5505 5506 5510 5514 5516 5519 5522 5524 5527 5529 5531 5534 5537
5500 5495 5491 5486 5481 5477 5475 5473 5473 5469 5469 5469 5470 5471 5470 5471 5471 5471 5471 5474 5476 5481 5481 5481 5484 5486 5489 5490 5493 5495 5498 5502 5504 5507 5510 5513 5515 5517
5478 5473 5467 5461 5458 5454 5450 5450 5448 5446 5446 5445 5446 5447 5447 5447 5446 5447 5449 5451 5455 5459 5461 5460 5464 5465 5466 5471 5473 5474 5478 5481 5484 5487 5490 5493 5495 5498
5452 5448 5443 5437 5433 5430 5427 5424 5422 5420 5420 5421 5421 5423 5422 5423 5423 5423 5425 5428 5431 5436 5437 5439 5443 5444 5444 5449 5454 5453 5456 5460 5463 5466 5469 5472 5474 5477
5421 5418 5415 5413 5409 5407 5403 5400 5397 5395 5395 5394 5395 5398 5397 5397 5398 5399 5400 5403 5405 5409 5413 5415 5420 5422 5423 5428 5433 5434 5436 5439 5443 5446 5449 5453 5455 5458
5394 5389 5386 5386 5382 5377 5374 5372 5369 5367 5365 5365 5367 5368 5368 5369 5371 5373 5374 5376 5378 5384 5387 5390 5393 5395 5401 5406 5408 5415 5415 5420 5422 5425 5429 5432 5435 5437
5366 5363 5361 5359 5355 5351 5347 5345 5343 5341 5339 5338 5337 5338 5340 5341 5342 5344 5347 5348 5352 5358 5363 5366 5366 5371 5376 5381 5387 5391 5393 5398 5401 5405 5408 5412 5413 5416
5341 5338 5334 5331 5327 5326 5323 5320 5318 5316 5315 5313 5313 5312 5313 5315 5315 5317 5320 5322 5325 5330 5335 5339 5343 5346 5352 5358 5364 5367 5371 5376 5379 5384 5389 5392 5393 5395
5318 5315 5311 5308 5306 5303 5301 5299 5298 5296 5293 5292 5291 5290 5290 5292 5292 5294 5296 5299 5301 5303 5308 5312 5317 5322 5327 5335 5340 5344 5350 5355 5361 5365 5368 5372 5375 5376
5298 5296 5292 5288 5286 5283 5281 5279 5278 5277 5275 5273 5273 5273 5272 5271 5272 5273 5275 5277 5280 5282 5285 5290 5296 5301 5306 5312 5317 5324 5329 5335 5341 5346 5349 5353 5356 5359
5282 5278 5274 5272 5268 5265 5263 5262 5260 5260 5259 5257 5257 5257 5257 5256 5256 5257 5258 5261 5263 5265 5270 5274 5279 5282 5287 5293 5301 5306 5311 5316 5322 5327 5330 5334 5337 5340
5267 5263 5260 5257 5254 5251 5249 5247 5247 5246 5245 5244 5244 5244 5243 5243 5244 5245 5246 5248 5251 5254 5258 5262 5266 5270 5276 5281 5287 5291 5296 5301 5305 5309 5313 5316 5321 5324
5252 5248 5246 5244 5242 5239 5237 5236 5235 5234 5234 5233 5233 5233 5233 5234 5235 5236 5238 5240 5242 5246 5250 5254 5258 5263 5268 5272 5276 5280 5284 5287 5291 5295 5298 5301 5305 5309